Terminal Aerodrome Forecast
Issued by NWS Blacksburg, VA

Home | Current Version | Previous Version | Text Only | Print | Product List | Glossary On
Versions: 1 2 3 4 5 6 7 8 9 10 11 12 13 14 15
000
FTUS41 KRNK 192320
TAFROA
TAF
KROA 192320Z 2000/2024 13006KT P6SM SCT150 OVC250
     FM200200 11007KT P6SM SCT035 BKN150
     FM201100 35010KT P6SM SCT080 BKN200
     FM201500 05009KT P6SM BKN250=

USA.gov is the U.S. government's official web portal to all federal, state and local government web resources and services.